Simultaneous Nadir Overpasses (SNOs) Predictions

Prediction of SNOs between METOP-B and NOAA-19 Satellite Orbit:

Table of predicted SNOs for the next 14.0 days since TLE Epoch: 10/10/2014
Index Date (METOP-B) Time (METOP-B) Lat,Lon (METOP-B) SZA (METOP-B ) Date (NOAA-19) Time (NOAA-19) Lat,Lon (NOAA-19) SZA (NOAA-19 ) Distance(km) Time Diff (sec)
1 10/15/2014 02:06:10 -74.77, -34.90 96.88 10/15/2014 02:05:01 -74.80, -37.20 96.84 67.20 69
2 10/15/2014 02:56:59 74.36, 131.33 82.72 10/15/2014 02:55:59 74.35, 131.28 82.71 1.81 60
3 10/15/2014 03:47:41 -74.31, -61.46 97.31 10/15/2014 03:46:54 -74.31, -61.35 97.32 3.42 47
4 10/15/2014 04:38:21 74.33, 105.92 82.72 10/15/2014 04:38:02 74.33, 105.81 82.72 3.38 19
5 10/15/2014 05:29:03 -74.29, -86.86 97.31 10/15/2014 05:28:57 -74.29, -86.81 97.31 1.36 6
6 10/15/2014 06:19:44 74.26, 80.40 82.68 10/15/2014 06:20:04 74.26, 80.47 82.68 2.34 20
7 10/15/2014 07:10:25 -74.26,-112.26 97.31 10/15/2014 07:11:00 -74.27,-112.28 97.31 0.83 35
8 10/15/2014 08:01:06 74.23, 55.00 82.68 10/15/2014 08:02:07 74.25, 55.01 82.69 1.22 61
9 10/15/2014 08:51:48 -74.19,-137.78 97.36 10/15/2014 08:53:02 -74.20,-137.62 97.35 5.13 74




NCC Satellite Simultaneous Nadir Overpasses (SNOs) Prediction Service
